Yellowstone Natl Park, WY

10:44 AM MST on December 09, 2016 (GMT -0700)
Yellowstone

Weather History for KP60 - February, 2014

Change the Weather History Date:

Tuesday, February 25, 2014

  Actual Average Record
Temperature  
Mean Temperature 10 °F 17 °F  
Max Temperature 31 °F 30 °F 41 °F (1999)
Min Temperature -11 °F 4 °F -31 °F (2003)
Degree Days  
Heating Degree Days 55 48  
Month to date heating degree days 1324 1263  
Since 1 July heating degree days 7912 7794  
Cooling Degree Days 0 0  
Month to date cooling degree days 0 0  
Year to date cooling degree days 0 0  
Moisture  
Dew Point 9 °F    
Average Humidity 59    
Maximum Humidity 85    
Minimum Humidity 33    
Precipitation  
Precipitation 0.10 in 0.05 in 0.40 in (2012)
Month to date precipitation 2.87 1.25  
Year to date precipitation 4.78 3.36  
Sea Level Pressure  
Sea Level Pressure 30.12 in    
Wind  
Wind Speed 5 mph (NW)    
Max Wind Speed 15 mph    
Max Gust Speed 25 mph    
T = Trace of Precipitation, MM = Missing Value Source: NWS Daily Summary

Daily Weather History Graph

Daily Weather History Graph

Search for Another Location

Airport or City:

Trip Planner

Search our weather history database for the weather conditions in past years. The results will help you decide how hot, cold, wet, or windy it might be!

Date:

Astronomy

Feb. 25, 2014 Rise Set
Actual Time 7:05 AM MST 6:04 PM MST
Civil Twilight 6:36 AM MST 6:33 PM MST
Nautical Twilight 6:02 AM MST 7:07 PM MST
Astronomical Twilight 5:28 AM MST 7:41 PM MST
Moon 4:10 AM MST (2/25) 2:07 PM MST (2/25)
Length of Visible Light 11h 57m
Length of Day
10h 58m
Waning Crescent, 17% of the Moon is Illuminated
Feb 25
Waning Crescent
Mar 1
New
Mar 8
First Quarter
Mar 16
Full
Mar 23
Last Quarter

Hourly Weather History & Observations

Time (MST) Temp. Windchill Dew Point Humidity Pressure Visibility Wind Dir Wind Speed Gust Speed Precip Events Conditions
12:56 AM 30.9 °F 25.2 °F 24.1 °F 76% 29.95 in - Variable 5.8 mph - N/A   Unknown
1:56 AM 30.0 °F 22.4 °F 24.1 °F 79% 29.93 in - West 8.1 mph - N/A   Unknown
2:56 AM 30.0 °F 21.7 °F 25.0 °F 82% 29.92 in - West 9.2 mph 18.4 mph N/A   Unknown
3:56 AM 30.0 °F 22.4 °F 26.1 °F 85% 29.91 in - West 8.1 mph - 0.02 in   Unknown
4:56 AM 28.9 °F 21.9 °F 25.0 °F 85% 29.92 in - Variable 6.9 mph - 0.01 in   Unknown
5:56 AM 28.9 °F 22.8 °F 25.0 °F 85% 29.92 in - Variable 5.8 mph - 0.01 in   Unknown
6:56 AM 26.1 °F 17.6 °F 23.0 °F 88% 29.96 in - NW 8.1 mph - 0.03 in   Unknown
7:56 AM 24.1 °F 17.0 °F 19.9 °F 84% 30.01 in - Variable 5.8 mph - 0.02 in   Unknown
8:56 AM 21.0 °F - 16.0 °F 81% 30.06 in - Calm Calm - 0.01 in   Unknown
9:56 AM 23.0 °F - 17.1 °F 78% 30.06 in - Calm Calm - N/A   Unknown
10:56 AM 23.0 °F 17.0 °F 14.0 °F 68% 30.09 in - Variable 4.6 mph - N/A   Unknown
11:56 AM 24.1 °F 13.7 °F 12.0 °F 60% 30.09 in - NW 10.4 mph 23.0 mph N/A   Unknown
12:56 PM 24.1 °F 14.4 °F 9.0 °F 53% 30.13 in - NNW 9.2 mph - N/A   Unknown
1:56 PM 23.0 °F 12.4 °F 6.1 °F 48% 30.14 in - NNW 10.4 mph - N/A   Unknown
2:56 PM 24.1 °F - 3.0 °F 40% 30.13 in - Calm Calm - N/A   Unknown
3:56 PM 23.0 °F - 3.9 °F 44% 30.15 in - Calm Calm - N/A   Unknown
4:56 PM 21.0 °F 12.4 °F -4.0 °F 33% 30.20 in - Variable 6.9 mph - N/A   Unknown
5:56 PM 16.0 °F 10.4 °F -6.0 °F 38% 30.24 in - Variable 3.5 mph - N/A   Unknown
6:56 PM 3.9 °F - -2.9 °F 73% 30.31 in - Calm Calm - N/A   Unknown
7:56 PM 1.0 °F -6.7 °F -5.1 °F 75% 30.32 in - NW 3.5 mph - N/A   Unknown
8:56 PM -2.9 °F -11.2 °F -8.0 °F 79% 30.36 in - NW 3.5 mph - N/A   Unknown
9:56 PM -6.0 °F - -9.9 °F 83% 30.36 in - Calm Calm - N/A   Unknown
10:56 PM -9.0 °F - -13.0 °F 83% 30.39 in - Calm Calm - N/A   Unknown
11:56 PM -11.0 °F - -16.1 °F 78% 30.39 in - Calm Calm - N/A   Unknown